SB KEPS @ AMSAT $ORB14065.O Orbital Elements 14065.OSCAR
HR AMSAT ORBITAL ELEMENTS FOR OSCAR SATELLITES FROM WA5QGD FORT WORTH,TX March 6, 2014 BID: ORB14065.O TO ALL RADIO AMATEURS BT
Satellite: AO-07 Catalog number: 07530 Epoch time: 14064.86844212 Element set: 909 Inclination: 101.4625 deg RA of node: 050.1420 deg Eccentricity: 0.0012250 Arg of perigee: 135.5321 deg Mean anomaly: 285.9349 deg Mean motion: 12.53602659 rev/day Decay rate: -1.0e-07 rev/day^2 Epoch rev: 79857 Checksum: 279
Satellite: FO-29 Catalog number: 24278 Epoch time: 14065.13596562 Element set: 324 Inclination: 098.5204 deg RA of node: 093.1902 deg Eccentricity: 0.0350390 Arg of perigee: 204.8555 deg Mean anomaly: 201.5893 deg Mean motion: 13.53016952 rev/day Decay rate: -1.7e-07 rev/day^2 Epoch rev: 86673 Checksum: 310
Satellite: SO-33 Catalog number: 25509 Epoch time: 14064.29447128 Element set: 702 Inclination: 031.4351 deg RA of node: 028.9876 deg Eccentricity: 0.0350267 Arg of perigee: 284.2276 deg Mean anomaly: 188.9817 deg Mean motion: 14.29339862 rev/day Decay rate: 1.330e-05 rev/day^2 Epoch rev: 80227 Checksum: 323
Satellite: RS-22 Catalog number: 27939 Epoch time: 14065.72179099 Element set: 282 Inclination: 097.8039 deg RA of node: 245.0045 deg Eccentricity: 0.0014287 Arg of perigee: 073.8870 deg Mean anomaly: 286.3899 deg Mean motion: 14.64959993 rev/day Decay rate: 2.130e-05 rev/day^2 Epoch rev: 55772 Checksum: 362
Satellite: VO-52 Catalog number: 28650 Epoch time: 14064.87611441 Element set: 675 Inclination: 097.5622 deg RA of node: 075.0394 deg Eccentricity: 0.0026780 Arg of perigee: 136.4286 deg Mean anomaly: 223.9051 deg Mean motion: 14.84909010 rev/day Decay rate: 3.675e-05 rev/day^2 Epoch rev: 47789 Checksum: 328
Satellite: HO-68 Catalog number: 36122 Epoch time: 14065.72938727 Element set: 385 Inclination: 100.2653 deg RA of node: 120.6752 deg Eccentricity: 0.0007909 Arg of perigee: 114.1672 deg Mean anomaly: 246.0263 deg Mean motion: 13.16312374 rev/day Decay rate: -4.3e-07 rev/day^2 Epoch rev: 20295 Checksum: 283
Satellite: AO-73 Catalog number: 39444 Epoch time: 14065.25676924 Element set: 82 Inclination: 097.7861 deg RA of node: 139.4050 deg Eccentricity: 0.0061866 Arg of perigee: 216.5203 deg Mean anomaly: 143.1766 deg Mean motion: 14.77689359 rev/day Decay rate: 5.373e-05 rev/day^2 Epoch rev: 1426 Checksum: 334
/EX SB KEPS @ AMSAT $ORB14065.D Orbital Elements 14065.MICROS
HR AMSAT ORBITAL ELEMENTS FOR THE MICROSATS FROM WA5QGD FORT WORTH,TX March 6, 2014 BID: ORB14065.D TO ALL RADIO AMATEURS BT
Satellite: UO-11 Catalog number: 14781 Epoch time: 14064.62818421 Element set: 431 Inclination: 097.8650 deg RA of node: 126.7197 deg Eccentricity: 0.0009779 Arg of perigee: 152.1752 deg Mean anomaly: 207.9986 deg Mean motion: 14.81364133 rev/day Decay rate: 1.153e-05 rev/day^2 Epoch rev: 61263 Checksum: 313
Satellite: AO-16 Catalog number: 20439 Epoch time: 14064.08628713 Element set: 970 Inclination: 098.4991 deg RA of node: 003.4292 deg Eccentricity: 0.0012084 Arg of perigee: 106.8634 deg Mean anomaly: 318.8455 deg Mean motion: 14.32297510 rev/day Decay rate: 2.71e-06 rev/day^2 Epoch rev: 25958 Checksum: 311
Satellite: LO-19 Catalog number: 20442 Epoch time: 14065.05210104 Element set: 908 Inclination: 098.4697 deg RA of node: 005.3437 deg Eccentricity: 0.0013095 Arg of perigee: 094.8514 deg Mean anomaly: 265.4166 deg Mean motion: 14.32503256 rev/day Decay rate: 2.47e-06 rev/day^2 Epoch rev: 25992 Checksum: 293
Satellite: AO-27 Catalog number: 22825 Epoch time: 14064.96500817 Element set: 612 Inclination: 098.6515 deg RA of node: 011.6576 deg Eccentricity: 0.0007591 Arg of perigee: 234.9483 deg Mean anomaly: 191.2205 deg Mean motion: 14.29670362 rev/day Decay rate: 2.20e-06 rev/day^2 Epoch rev: 6603 Checksum: 292
Satellite: IO-26 Catalog number: 22826 Epoch time: 14064.89902053 Element set: 369 Inclination: 098.6459 deg RA of node: 011.8288 deg Eccentricity: 0.0008214 Arg of perigee: 227.6595 deg Mean anomaly: 132.3892 deg Mean motion: 14.29965503 rev/day Decay rate: 2.52e-06 rev/day^2 Epoch rev: 6615 Checksum: 326
Satellite: GO-32 Catalog number: 25397 Epoch time: 14064.83457763 Element set: 292 Inclination: 098.4558 deg RA of node: 026.7498 deg Eccentricity: 0.0000621 Arg of perigee: 183.5494 deg Mean anomaly: 256.4561 deg Mean motion: 14.23412715 rev/day Decay rate: 1.44e-06 rev/day^2 Epoch rev: 81316 Checksum: 317
Satellite: NO-44 Catalog number: 26931 Epoch time: 14065.09879926 Element set: 549 Inclination: 067.0522 deg RA of node: 304.2798 deg Eccentricity: 0.0005340 Arg of perigee: 273.9098 deg Mean anomaly: 086.1393 deg Mean motion: 14.30056166 rev/day Decay rate: 2.22e-06 rev/day^2 Epoch rev: 64886 Checksum: 328
Satellite: SO-50 Catalog number: 27607 Epoch time: 14064.79921475 Element set: 321 Inclination: 064.5576 deg RA of node: 187.4495 deg Eccentricity: 0.0036160 Arg of perigee: 048.0908 deg Mean anomaly: 312.3267 deg Mean motion: 14.73487577 rev/day Decay rate: 1.604e-05 rev/day^2 Epoch rev: 60224 Checksum: 319
Satellite: CO-55 Catalog number: 27844 Epoch time: 14065.00988251 Element set: 871 Inclination: 098.7004 deg RA of node: 075.2665 deg Eccentricity: 0.0009475 Arg of perigee: 206.7186 deg Mean anomaly: 207.0344 deg Mean motion: 14.21413305 rev/day Decay rate: 4.81e-06 rev/day^2 Epoch rev: 55392 Checksum: 305
Satellite: CO-57 Catalog number: 27848 Epoch time: 14064.51895420 Element set: 812 Inclination: 098.7097 deg RA of node: 074.4367 deg Eccentricity: 0.0009222 Arg of perigee: 214.8070 deg Mean anomaly: 298.3348 deg Mean motion: 14.21112488 rev/day Decay rate: 4.08e-06 rev/day^2 Epoch rev: 55377 Checksum: 327
Satellite: AO-51 Catalog number: 28375 Epoch time: 14064.90983934 Element set: 787 Inclination: 098.2392 deg RA of node: 015.4028 deg Eccentricity: 0.0081978 Arg of perigee: 304.9691 deg Mean anomaly: 054.3819 deg Mean motion: 14.41306152 rev/day Decay rate: 4.96e-06 rev/day^2 Epoch rev: 50902 Checksum: 333
Satellite: CP3 Catalog number: 31129 Epoch time: 14064.22208574 Element set: 689 Inclination: 097.9248 deg RA of node: 047.5490 deg Eccentricity: 0.0098260 Arg of perigee: 335.6309 deg Mean anomaly: 089.8815 deg Mean motion: 14.54351501 rev/day Decay rate: 3.235e-05 rev/day^2 Epoch rev: 36492 Checksum: 322
Satellite: CO-65 Catalog number: 32785 Epoch time: 14065.14449630 Element set: 886 Inclination: 097.7129 deg RA of node: 119.7813 deg Eccentricity: 0.0014651 Arg of perigee: 162.9020 deg Mean anomaly: 253.1583 deg Mean motion: 14.84817408 rev/day Decay rate: 3.133e-05 rev/day^2 Epoch rev: 31673 Checksum: 318
Satellite: PRISM Catalog number: 33493 Epoch time: 14065.79915905 Element set: 704 Inclination: 098.2405 deg RA of node: 237.2096 deg Eccentricity: 0.0018385 Arg of perigee: 059.8145 deg Mean anomaly: 300.4847 deg Mean motion: 14.88279375 rev/day Decay rate: 1.0553e-04 rev/day^2 Epoch rev: 27694 Checksum: 337
Satellite: SOHLA-1 Catalog number: 33496 Epoch time: 14064.43314421 Element set: 290 Inclination: 098.1555 deg RA of node: 185.2069 deg Eccentricity: 0.0006257 Arg of perigee: 201.6664 deg Mean anomaly: 202.6975 deg Mean motion: 14.70633196 rev/day Decay rate: 9.29e-06 rev/day^2 Epoch rev: 27426 Checksum: 305
Satellite: TISAT-1 Catalog number: 36799 Epoch time: 14065.75518337 Element set: 968 Inclination: 098.0189 deg RA of node: 157.0375 deg Eccentricity: 0.0012973 Arg of perigee: 298.4352 deg Mean anomaly: 061.5520 deg Mean motion: 14.84850311 rev/day Decay rate: 6.837e-05 rev/day^2 Epoch rev: 19751 Checksum: 341
Satellite: STUDSAT Catalog number: 36801 Epoch time: 14064.49709219 Element set: 781 Inclination: 098.0328 deg RA of node: 161.9586 deg Eccentricity: 0.0009800 Arg of perigee: 270.8277 deg Mean anomaly: 217.9050 deg Mean motion: 14.93442405 rev/day Decay rate: 2.0276e-04 rev/day^2 Epoch rev: 19763 Checksum: 316
Satellite: ALMASAT-1 Catalog number: 38078 Epoch time: 14065.16235924 Element set: 953 Inclination: 069.4717 deg RA of node: 306.2603 deg Eccentricity: 0.0631418 Arg of perigee: 168.4132 deg Mean anomaly: 321.9444 deg Mean motion: 14.40714848 rev/day Decay rate: 4.3726e-04 rev/day^2 Epoch rev: 10674 Checksum: 310
Satellite: XATCOBEO Catalog number: 38082 Epoch time: 14065.89774052 Element set: 9 Inclination: 069.4536 deg RA of node: 235.5541 deg Eccentricity: 0.0367220 Arg of perigee: 130.1270 deg Mean anomaly: 348.4643 deg Mean motion: 15.08659262 rev/day Decay rate: 2.53481e-03 rev/day^2 Epoch rev: 10872 Checksum: 303
Satellite: CUBEBUG-1 Catalog number: 39153 Epoch time: 14065.76001673 Element set: 914 Inclination: 098.0486 deg RA of node: 146.2686 deg Eccentricity: 0.0017582 Arg of perigee: 324.1309 deg Mean anomaly: 035.8705 deg Mean motion: 14.77270543 rev/day Decay rate: 3.875e-05 rev/day^2 Epoch rev: 4643 Checksum: 312
Satellite: ESTCUBE-1 Catalog number: 39161 Epoch time: 14065.83833518 Element set: 887 Inclination: 098.1038 deg RA of node: 147.4849 deg Eccentricity: 0.0010233 Arg of perigee: 008.7103 deg Mean anomaly: 351.4254 deg Mean motion: 14.69650143 rev/day Decay rate: 3.051e-05 rev/day^2 Epoch rev: 4456 Checksum: 293
/EX SB KEPS @ AMSAT $ORB14065.W Orbital Elements 14065.WEATHER
HR AMSAT ORBITAL ELEMENTS FOR WEATHER SATELLITES FROM WA5QGD FORT WORTH,TX March 6, 2014 BID: ORB14065.W TO ALL RADIO AMATEURS BT
Satellite: MET-3/5 Catalog number: 21655 Epoch time: 14065.18523033 Element set: 918 Inclination: 082.5530 deg RA of node: 069.1923 deg Eccentricity: 0.0013292 Arg of perigee: 189.3461 deg Mean anomaly: 170.7416 deg Mean motion: 13.17050025 rev/day Decay rate: 4.61e-06 rev/day^2 Epoch rev: 8442 Checksum: 277
Satellite: MET-2/21 Catalog number: 22782 Epoch time: 14064.52104562 Element set: 994 Inclination: 082.5462 deg RA of node: 255.5524 deg Eccentricity: 0.0022337 Arg of perigee: 193.0283 deg Mean anomaly: 222.1044 deg Mean motion: 13.83726545 rev/day Decay rate: 9.8e-07 rev/day^2 Epoch rev: 3578 Checksum: 296
